[Iaude] MPEC T46: 2014 EE [a=2.24,e=0.48,i=22.0,H=20.6]

mpec at si.edu mpec at si.edu
Thu Oct 6 07:47:50 EDT 2016


M.P.E.C. 2016-T46                                Issued 2016 Oct. 6, 11:43 UT
 
     The Minor Planet Electronic Circulars contain information on unusual
         minor planets and routine data on comets.  They are published
    on behalf of Division F of the International Astronomical Union by the
          Minor Planet Center, Smithsonian Astrophysical Observatory,
                          Cambridge, MA 02138, U.S.A.

             Prepared using the Tamkin Foundation Computer Network

                              MPC at CFA.HARVARD.EDU
            URL http://www.minorplanetcenter.net/    ISSN 1523-6714


                                    2014 EE
 
                           Revision to MPEC 2014-E38
 
Additional Observations:
     K14E00E 2C2016 09 09.49852700 30 54.931+00 11 57.84         23.7 RtET046568
     K14E00E 2C2016 09 09.50946500 30 54.402+00 11 48.39         23.9 RtET046568
     K14E00E 2C2016 09 09.52060000 30 53.875+00 11 38.58         23.7 RtET046568
     K14E00E 2C2016 09 27.41546800 14 20.653-04 35 54.98         23.0 RtET046568
     K14E00E 2C2016 09 27.42638100 14 19.937-04 36 06.21         22.8 RtET046568
 
Observer details:
568 Mauna Kea.  Observers Y. Ramanjooloo, Z. Claytor, D. Hung.  Measurers
    Y. Ramanjooloo, D. J. Tholen.  2.24-m University of Hawaii reflector.
 
First and last observations above in comparison with prediction:
Residuals in seconds of arc, reference and Delta-T
160909 568 13.8+  0.8+    160927 568 14.6+  0.1+    MPO311394   -0.0095 day
 
Orbital elements:
2014 EE                                                  Earth MOID = 0.2642 AU
Epoch 2016 July 31.0 TT = JDT 2457600.5                 MPC
M 273.84211              (2000.0)            P               Q
n   0.29432965     Peri.  312.40065     -0.60814138     -0.79307175
a   2.2382747      Node   174.69602     +0.79272146     -0.60901926
e   0.4766827      Incl.   22.02044     +0.04191347     +0.01152105
P   3.35           H   20.6           G   0.15           U   2
Residuals in seconds of arc
140304 F51  0.1-  0.0     140308 807  0.1-  0.4+    140329 G45  0.0   0.1-
140304 F51  0.0   0.1+    140308 807  0.0   0.2+    140329 G45  0.7-  1.0-
140304 F51  0.2+  0.2-    140308 807  0.2+  0.0     140329 G45  0.4-  0.4+
140304 F51  0.1-  0.1+    140310 204  0.3-  0.0     140329 G45  0.6-  0.2+
140304 F51  0.1+  0.4+    140310 204  0.2-  0.0     140329 G45  0.5-  0.7+
140304 F51  0.1-  0.2+    140310 204  0.3-  0.1-    140329 291  0.0   0.1+
140304 F51  0.0   0.0     140310 926  0.2-  0.3-    140329 291  0.0   0.3+
140304 F51  0.0   0.1+    140310 H21  0.4-  0.1-    140329 291  0.0   0.2+
140305 J95  0.0   0.0     140310 807  0.3-  0.1-    140330 291  0.0   0.0
140305 J95  0.1+  0.2-    140310 H21  0.5-  0.1-    140330 291  0.0   0.1+
140305 J95  0.3-  0.2-    140310 926  0.3+  0.4+    140330 291  0.1+  0.1+
140305 807  0.3+  0.0     140310 807  0.2-  0.2-    140331 291  0.1+  0.2+
140305 807  0.5+  0.1-    140310 H21  0.1-  0.1+    140331 291  0.2+  0.2+
140305 807  0.1-  0.0     140310 807  0.3-  0.2-    140331 291  0.3+  0.1+
140305 H21  0.4-  0.2+    140310 926  0.3+  0.2+    140401 291  0.2+  0.2+
140305 H21  0.2-  0.1-    140311 807  0.0   0.1-    140401 291  0.1+  0.4+
140305 H21  0.6-  0.6+    140311 807  0.5+  0.2+    140401 291  0.2+  0.2+
140305 H21  0.1-  0.2-    140311 807  0.2+  0.1+    140408 G96  0.1+  0.1+
140305 711  0.9+  0.4-    140311 291  0.1+  0.1+    140408 G96  0.5-  0.2-
140305 711  0.7+  0.7-    140311 291  0.1+  0.2-    140408 G96  0.1-  0.1-
140305 711  0.3+  1.1-    140311 291  0.0   0.1+    140408 G96  0.1-  0.1-
140306 807  0.2+  0.5+    140312 926  0.1+  0.2+    140409 G96  0.0   0.5-
140306 807  0.1-  0.9+    140312 926  0.1+  0.0     140409 G96  0.5+  0.6-
140306 807  0.1+  0.6+    140312 926  0.0   0.1+    140409 G96  0.0   0.2-
140306 291  0.1+  0.0     140320 291  0.2+  0.1+    140409 G96  0.2-  0.2-
140306 291  0.1+  0.0     140320 291  0.1-  0.2+    140426 H21  0.1-  0.2-
140306 291  0.1+  0.1+    140324 291  0.1-  0.1+    140426 H21  0.3+  0.3-
140307 291  0.0   0.1-    140324 291  0.1-  0.2+    140426 H21  0.5+  0.1+
140307 291  0.1+  0.0     140324 291  0.1-  0.0     160909 568  0.1+  0.1+
140307 291  0.1+  0.2+    140326 G96  0.1-  0.1-    160909 568  0.1-  0.2+
140307 H21  0.1+  0.1+    140326 G96  0.1-  0.0     160909 568  0.0   0.0
140307 H21  0.4+  0.1+    140326 G96  0.1-  0.5+    160927 568  0.0   0.1+
140307 H21  0.1+  0.1+    140326 G96  0.1-  0.1+    160927 568  0.0   0.0

Ephemeris:
2014 EE                  a,e,i = 2.24, 0.48, 22                  q = 1.1713
Date    TT    R. A. (2000) Decl.     Delta      r     Elong.  Phase     V
2016 09 06    00 33 24.6 +01 01 05   1.5072  2.4599   155.4     9.8    24.1
...
2016 09 21    00 20 51.7 -02 47 47   1.3857  2.3851   172.8     3.0    23.5
...
2016 09 29    00 12 40.7 -05 02 50   1.3475  2.3439   172.2     3.3    23.4
...
2016 10 05    00 06 18.7 -06 44 19   1.3314  2.3123   165.2     6.4    23.5
2016 10 06    00 05 15.4 -07 00 57   1.3298  2.3070   163.9     6.9    23.5
2016 10 07    00 04 12.3 -07 17 29   1.3284  2.3017   162.6     7.4    23.6
...
2016 10 13    23 58 05.3 -08 53 19   1.3262  2.2696   154.9    10.7    23.7
...
2016 10 21    23 50 47.2 -10 48 40   1.3376  2.2259   144.7    15.0    23.8
...
2016 11 05    23 41 27.1 -13 32 17   1.3952  2.1418   126.8    21.8    24.0

A. U. Tomatic                (C) Copyright 2016 MPC           M.P.E.C. 2016-T46




More information about the Iaude mailing list